Richmond International Airport Airport (RIC)

 

Airport Diagram
Current Weather/Forecast (VFR Conditions)
METAR KRIC 021754Z 22007KT 10SM FEW090 SCT140 BKN300 24/14 A3004 RMK AO2 SLP177 T02440144 10244 20150 58028
TAF KRIC 021720Z 0218/0318 22009KT P6SM SCT080 FM022300 21007KT P6SM SCT100 FM031200 26008KT P6SM SKC FM031500 25012G20KT P6SM SCT060

All Charts
General
Chart Name Download
AIRPORT DIAGRAM
TAKEOFF MINIMUMS
ALTERNATE MINIMUMS
HOT SPOT

Departures
Chart Name Download
COLIN EIGHT
KALLI SIX (RNAV)
KALLI SIX (RNAV), CONT.1
LUCYL SIX (RNAV)
LUCYL SIX (RNAV), CONT.1
READE SEVEN
READE SEVEN, CONT.1

Arrivals
Chart Name Download
DUCXS FOUR (RNAV)
POWTN FOUR (RNAV)
SPIDR THREE (RNAV)

Approaches
Chart Name Download
ILS OR LOC RWY 02
ILS OR LOC RWY 16
ILS OR LOC RWY 34
ILS RWY 34 (SA CAT I)
ILS RWY 34 (CAT II - III)
RNAV (RNP) Y RWY 02
RNAV (RNP) Y RWY 16
RNAV (RNP) Y RWY 20
RNAV (RNP) Y RWY 34
RNAV (GPS) Z RWY 02
RNAV (GPS) Z RWY 16
RNAV (GPS) Z RWY 20
RNAV (GPS) Z RWY 34
VOR RWY 02
VOR RWY 16
VOR RWY 20
VOR RWY 34


Inbound Traffic (Arrivals)

No inbound traffic.


Outbound Traffic (Departures)

No outbound traffic.